{"data":{"norad_id":57401,"epoch":"2026-05-25T03:43:10.520832Z","epoch_age_seconds":61399,"freshness":"FRESH","line1":"1 57401U 23101C   26145.15498288  .00005673  00000+0  20080-3 0  9990","line2":"2 57401  97.2556 195.5573 0002519 186.3862 173.7347 15.29522547158120","mean_motion":15.29522547,"eccentricity":0.0002519,"inclination_deg":97.2556,"raan_deg":195.5573,"arg_perigee_deg":186.3862,"mean_anomaly_deg":173.7347,"bstar":0.0002008,"rev_number":15812,"period_min":94.147026653802,"perigee_km":475.51169941768,"apogee_km":478.9654376291,"semimajor_km":6855.3755685234,"source":"CELESTRAK","updated_at":"2026-05-25T13:38:12.255654Z"}}